Regional Weather Roundup
Issued by NWS Goodland, KS

Home | Current Version | Previous Version | Text Only | Print | Product List | Glossary Off
Versions: 1 2 3 4 5 6 7 8 9 10 11 12 13 14 15 16 17 18 19 20 21 22 23 24 25 26 27 28 29 30 31 32 33 34 35 36 37 38 39 40 41 42 43 44 45 46 47 48 49 50

810
ASUS43 KGLD 161608
RWRGLD

GOODLAND FORECAST AREA HOURLY WEATHER ROUNDUP
NATIONAL WEATHER SERVICE GOODLAND KS
900 AM MST MON JAN 16 2017

...OFFICIAL OBSERVATIONS...

CITY           SKY/WX    TMP DP  RH WIND       PRES   REMARKS
GOODLAND KS    LGT SNOW  31  31 100 N18       29.91R FOG     WCI  19
HILL CITY KS   FRZ RAIN  33  32  96 N15       29.90R
IMPERIAL NEB   LGT RAIN  33  31  92 N18       29.95R FOG
MCCOOK NEB     LGT RAIN  33  32  96 N10       29.93R FOG
AKRON CO       LGT SNOW  29  26  89 N18       29.99R VSB 3/4 WCI  16
BURLINGTON CO  CLOUDY    32  30  92 NW16      29.93R FOG
LIMON CO       LGT SNOW  29  27  92 NW25G33   29.97R FOG     WCI  14
$$

...UNOFFICIAL OBSERVATIONS...

CITY           SKY/WX    TMP DP  RH WIND       PRES   REMARKS
LENORA KS        N/A     32  32 100 CALM        N/A
NORTON KS      MIX PCPN  34  28  80 N3        29.91R
SHARON SPRINGS   N/A     32  32 100 CALM        N/A
TRIBUNE KS     CLOUDY    34  32  93 NW7       29.92
TRENTON NEB      N/A     32  32 100 CALM        N/A
KIT CARSON CO    N/A     30  27  90 CALM        N/A
YUMA CO        LGT SNOW  30  28  93 N18       29.97R VSB 3/4 WCI  18
$$




USA.gov is the U.S. government's official web portal to all federal, state and local government web resources and services.